Home > Weather > Brentwood > Past weeks

Flag for United Kingdom Past Weather in Brentwood, England, United Kingdom — Yesterday and Last 2 Weeks

Now
59 °F

Cool.


Feels Like: 56 °F
Forecast: 57 / 67 °F
Wind: 14 mph from South

Location: Gravesend-Broadness

Current Time: Jun 29, 2016 at 7:20:28 PM

Latest Report: Jun 29, 2016 at 6:00 PM


Visibility: N/A

Pressure: 29.75 "Hg

Humidity: 89%

Dew Point: 55 °F

Location of BrentwoodLocation

Past Weather in Brentwood — Graph

°F

Brentwood Temperature Yesterday

Maximum temperature yesterday: 72 °F (at 3:00 PM)
Minimum temperature yesterday: 52 °F (at 5:00 AM)
Average temperature yesterday: 60 °F

High & Low Weather Summary for the Past Weeks

 TemperatureHumidityPressure
High72 °F (Jun 22, 4:00 PM)99% (Jun 17, 5:00 AM)30.24 "Hg (Jun 17, 5:00 AM)
Low50 °F (Jun 18, 12:00 AM)50% (Jun 27, 5:00 PM)29.35 "Hg (Jun 14, 7:00 PM)
Average61 °F81%29.92 "Hg
* Reported Jun 14 6:00 PM — Jun 29 6:00 PM, Brentwood, Weather by CustomWeather, © 2016

Note: Actual official high and low records may vary slightly from our data, if they occured in-between our weather recording intervals... More about our weather records

Advertising

Brentwood Weather History for the Previous 24 Hours

Scroll right to see more
 ConditionsComfort  
Time TempWeatherWind HumidityBarometerVisibility
6:00 PM
Wed, Jun 29
59 °FCool.14 mph89%29.75 "HgN/A
5:00 PM58 °FCool.15 mph90%29.76 "HgN/A
4:00 PM59 °FCool.17 mph85%29.78 "HgN/A
3:00 PM59 °FCool.21 mph82%29.78 "HgN/A
2:00 PM62 °FCool.17 mph70%29.79 "HgN/A
1:00 PM62 °FCool.16 mph70%29.80 "HgN/A
12:00 PM64 °FMild.16 mph64%29.80 "HgN/A
11:00 AM63 °FMild.15 mph68%29.81 "HgN/A
9:00 AM60 °FCool.8 mph78%29.84 "HgN/A
8:00 AM58 °FCool.6 mph83%29.85 "HgN/A
7:00 AM56 °FCool.7 mph86%29.84 "HgN/A
6:00 AM54 °FCool.6 mph88%29.83 "HgN/A
5:00 AM54 °FCool.15 mph85%29.83 "HgN/A
4:00 AM55 °FCool.17 mph85%29.82 "HgN/A
3:00 AM57 °FCool.15 mph90%29.79 "HgN/A
2:00 AM58 °FCool.15 mph89%29.78 "HgN/A
1:00 AM57 °FCool.15 mph90%29.75 "HgN/A
12:00 AM56 °FCool.10 mph93%29.75 "HgN/A
11:00 PM
Tue, Jun 28
57 °FCool.13 mph89%29.73 "HgN/A
10:00 PM57 °FCool.12 mph91%29.73 "HgN/A
9:00 PM56 °FCool.10 mph90%29.76 "HgN/A
8:00 PM56 °FCool.8 mph91%29.79 "HgN/A
7:00 PM56 °FCool.7 mph89%29.84 "HgN/A
Weather by CustomWeather, © 2016

See weather overviewHow to use our weather pages